This is the latest recevied weather packets stored in our database for station/object KQ4UWH. If no packets are shown the sender has not sent any weather packets the latest 10 day(s).
| Time | Temp. | Humidity | Pressure | Rain* | Wind** | Luminosity | Snow |
|---|---|---|---|---|---|---|---|
| 1777567746 | 20° C | 65% | 1239.7 hPa | 0 mm | - | 726 W/m² | - |
| 1777567442 | 20° C | 64% | 1239.7 hPa | 0 mm | - | 673 W/m² | - |
| 1777567140 | 20° C | 63% | 1239.7 hPa | 0 mm | - | 697 W/m² | - |
| 1777566838 | 19.44° C | 67% | 1239.7 hPa | 0 mm | - | 689 W/m² | - |
| 1777566535 | 19.44° C | 66% | 1239.7 hPa | 0 mm | - | 592 W/m² | - |
| 1777566233 | 19.44° C | 67% | 1239.7 hPa | 0 mm | - | 704 W/m² | - |
| 1777565930 | 18.89° C | 68% | 1239.7 hPa | 0 mm | - | 725 W/m² | - |
| 1777565625 | 19.44° C | 67% | 1239.7 hPa | 0 mm | - | 732 W/m² | - |
| 1777565322 | 18.89° C | 69% | 1239.7 hPa | 0 mm | - | 665 W/m² | - |
| 1777565018 | 18.89° C | 70% | 1239.7 hPa | 0 mm | - | 689 W/m² | - |
| 1777564713 | 18.33° C | 72% | 1239.7 hPa | 0 mm | - | 628 W/m² | - |
| 1777564409 | 18.33° C | 74% | 1239.7 hPa | 0 mm | - | 333 W/m² | - |
| 1777564105 | 17.78° C | 75% | 1239.7 hPa | 0 mm | - | 392 W/m² | - |
| 1777563801 | 17.78° C | 75% | 1239.7 hPa | 0 mm | - | 324 W/m² | - |
| 1777563498 | 17.78° C | 76% | 1239.7 hPa | 0 mm | - | 301 W/m² | - |
| 1777563197 | 17.78° C | 77% | 1239.7 hPa | 0 mm | - | 303 W/m² | - |
| 1777562894 | 17.22° C | 77% | 1239.7 hPa | 0 mm | - | 340 W/m² | - |
| 1777562590 | 17.22° C | 77% | 1239.7 hPa | 0 mm | - | 285 W/m² | - |
| 1777562289 | 17.22° C | 76% | 1239.7 hPa | 0 mm | - | 302 W/m² | - |
| 1777561986 | 17.22° C | 78% | 1239.7 hPa | 0 mm | - | 302 W/m² | - |
| 1777561683 | 16.67° C | 78% | 1239.7 hPa | 0 mm | - | 294 W/m² | - |
| 1777561378 | 16.67° C | 79% | 1239.7 hPa | 0 mm | - | 262 W/m² | - |
| 1777561074 | 16.67° C | 81% | 1239.7 hPa | 0 mm | - | 228 W/m² | - |
| 1777560769 | 16.67° C | 81% | 1239.7 hPa | 0 mm | - | 219 W/m² | - |
| 1777560467 | 16.11° C | 82% | 1239.7 hPa | 0 mm | - | 138 W/m² | - |
* Rain latest hour (hover to see other rain measurements)
** Current wind speed in m/s (hover to see current wind gust speed)